Location: Étouvelles
(49.5207°N, 3.5808°E)
Time: 23:39:12
(UTC+00:00)

Cosmos 2360 Rocket - Pass Details

Date: 03 February 2023
Orbit: 832 x 846 km, 71.0° (Epoch: 01 April)

Event Time Altitude Azimuth Distance (km) Brightness Sun altitude
Rises 18:02:26 0° 186° (S) 3,373 5.5 -12.9°
Reaches altitude 10° 18:04:57 10° 180° (S) 2,445 4.7 -13.3°
Maximum altitude 18:10:15 45° 109° (ESE) 1,139 2.5 -14.1°
Enters shadow 18:15:00 13° 41° (NE) 2,261 4.0 -14.9°
